"Pseudo-MPEC" for ZTF10EI

Created 2026 Jun 17 18:35:10 UT using Find_Orb

Click here for an explanation of pseudo-MPECs

 
 Astrometry: 
     ZTF10EI 0C2026 06 04.33913014 27 43.431-13 10 37.12   ~69E5 20.48RUNEOCPI41
     ZTF10EI 0C2026 06 04.33948014 27 44.255-13 10 31.85   ~69E5 20.48RUNEOCPI41
     ZTF10EI 0C2026 06 05.28945415 23 17.840-03 57 58.27   ~68N5 19.33gUNEOCPI41
     ZTF10EI 0C2026 06 05.28980215 23 19.014-03 57 43.98   ~68N5 19.33gUNEOCPI41
     ZTF10EI 0C2026 06 05.32419615 25 15.796-03 36 30.99   ~68Ko       UNEOCPI41
     ZTF10EI 0C2026 06 05.32454315 25 17.080-03 36 17.80   ~68Ko       UNEOCPI41
     ZTF10EI*0C2026 06 05.32466615 25 17.461-03 36 11.91   ~68Go 18.70RUNEOCPI41
     ZTF10EI 0C2026 06 05.32501615 25 18.643-03 35 59.25   ~68Go 18.70RUNEOCPI41
     ZTF10EI 0C2026 06 05.34882315 26 39.792-03 21 16.86   ~68Ko 18.89iUNEOCPI41
     ZTF10EI 0C2026 06 05.34917115 26 40.979-03 21 03.67   ~68Ko 18.89iUNEOCPI41

Station data:
(I41) Palomar Mountain--ZTF  (N33.357336 W116.859780)  US/California.
   Observers B. T. Bolin, Z. T. F. Collaboration. Measurers B. T. Bolin,
   Z.-Y. Lin, F. J. Masci. 1.2-m f/2.4 Schmidt.

Orbital elements:  ZTF10EI
   Perihelion 2026 Jun 2.420889 +/- 0.0649 TT = 10:06:04.7 (JD 2461193.920889)
Epoch 2026 Jun  5.0 TT = JDT 2461196.5   Earth MOID: 0.0161      AutoNEOCP
M   0.661793155 +/- 0.023           (J2000 ecliptic)
n   0.256597370 +/- 0.00888         Peri.  357.880747 +/- 0.07
a   2.452644374 +/- 0.0566          Node   252.610492 +/- 0.008
e   0.57999092 +/- 0.00961          Incl.   11.511591 +/- 0.13
P   3.84107                H 26.84  G  0.15   U  9.6
q 1.030132889 +/- 0.000211    Q 3.875155859 +/- 0.113
From 10 observations 2026 June 4-5 (24.2 hr); mean residual 1".29
Residuals in arcseconds: 
260604 I41  2.3+  3.0+    260605 I41  1.1-  .70-    260605 I41  .30+  .31-    
260604 I41  2.3-  3.0-    260605 I41  .44+  .38-    260605 I41  .29+  .04-    
260605 I41  .27+  .78-    260605 I41  .12-  .95+    
260605 I41  .16+  .63+    260605 I41  .25-  .63+    

Ephemerides (geocentric):
Date (UTC) HH   RA             Dec           delta  r     elong  mag " sig PA
---- --------  ------------   ------------  ------ ------ -----  --- --------
2026 06 17 19  20 09 03.945   +32 03 35.70  .07401 1.0489 114.6 23.5  296  75
2026 06 17 20  20 09 15.999   +32 04 03.48  .07424 1.0490 114.6 23.5  296  75
2026 06 17 21  20 09 27.974   +32 04 30.91  .07447 1.0491 114.5 23.5  297  75
2026 06 17 22  20 09 39.872   +32 04 58.01  .07470 1.0492 114.5 23.5  297  75
2026 06 17 23  20 09 51.693   +32 05 24.77  .07494 1.0493 114.5 23.5  297  76
2026 06 18 00  20 10 03.438   +32 05 51.20  .07517 1.0494 114.5 23.5  297  76
2026 06 18 01  20 10 15.107   +32 06 17.30  .07540 1.0495 114.5 23.5  297  76
2026 06 18 02  20 10 26.702   +32 06 43.08  .07563 1.0496 114.5 23.5  297  76
2026 06 18 03  20 10 38.223   +32 07 08.54  .07586 1.0497 114.5 23.5  297  76
2026 06 18 04  20 10 49.670   +32 07 33.68  .07609 1.0498 114.5 23.6  297  76
2026 06 18 05  20 11 01.044   +32 07 58.50  .07632 1.0499 114.5 23.6  297  76
2026 06 18 06  20 11 12.346   +32 08 23.02  .07655 1.0500 114.5 23.6  297  76
2026 06 18 07  20 11 23.576   +32 08 47.22  .07678 1.0501 114.5 23.6  297  76
2026 06 18 08  20 11 34.735   +32 09 11.12  .07702 1.0502 114.4 23.6  297  76
2026 06 18 09  20 11 45.824   +32 09 34.72  .07725 1.0503 114.4 23.6  297  76
2026 06 18 10  20 11 56.843   +32 09 58.02  .07748 1.0504 114.4 23.6  297  76
2026 06 18 11  20 12 07.793   +32 10 21.02  .07771 1.0505 114.4 23.6  297  76
2026 06 18 12  20 12 18.674   +32 10 43.73  .07794 1.0506 114.4 23.6  297  76
2026 06 18 13  20 12 29.486   +32 11 06.16  .07817 1.0507 114.4 23.6  297  76
2026 06 18 14  20 12 40.232   +32 11 28.29  .07840 1.0508 114.4 23.6  298  76
2026 06 18 15  20 12 50.910   +32 11 50.14  .07863 1.0509 114.4 23.6  298  76
2026 06 18 16  20 13 01.522   +32 12 11.71  .07887 1.0510 114.4 23.6  298  76
2026 06 18 17  20 13 12.067   +32 12 33.00  .07910 1.0511 114.4 23.6  298  76
2026 06 18 18  20 13 22.548   +32 12 54.01  .07933 1.0513 114.4 23.6  298  76
2026 06 18 19  20 13 32.963   +32 13 14.75  .07956 1.0514 114.4 23.7  298  76
2026 06 18 20  20 13 43.314   +32 13 35.22  .07979 1.0515 114.4 23.7  298  76
2026 06 18 21  20 13 53.602   +32 13 55.43  .08002 1.0516 114.4 23.7  298  76
2026 06 18 22  20 14 03.826   +32 14 15.36  .08025 1.0517 114.4 23.7  298  76
2026 06 18 23  20 14 13.987   +32 14 35.04  .08049 1.0518 114.4 23.7  298  76
2026 06 19 00  20 14 24.087   +32 14 54.45  .08072 1.0519 114.4 23.7  298  76
2026 06 19 01  20 14 34.124   +32 15 13.61  .08095 1.0520 114.3 23.7  298  76
2026 06 19 02  20 14 44.100   +32 15 32.51  .08118 1.0521 114.3 23.7  298  76
2026 06 19 03  20 14 54.015   +32 15 51.15  .08141 1.0522 114.3 23.7  298  76
2026 06 19 04  20 15 03.870   +32 16 09.55  .08164 1.0523 114.3 23.7  298  76
2026 06 19 05  20 15 13.665   +32 16 27.70  .08187 1.0524 114.3 23.7  298  76
2026 06 19 06  20 15 23.401   +32 16 45.60  .08211 1.0525 114.3 23.7  298  76
2026 06 19 07  20 15 33.078   +32 17 03.26  .08234 1.0527 114.3 23.7  298  76
2026 06 19 08  20 15 42.697   +32 17 20.68  .08257 1.0528 114.3 23.7  298  76
2026 06 19 09  20 15 52.257   +32 17 37.85  .08280 1.0529 114.3 23.7  299  76
2026 06 19 10  20 16 01.760   +32 17 54.79  .08303 1.0530 114.3 23.7  299  76
2026 06 19 11  20 16 11.206   +32 18 11.50  .08326 1.0531 114.3 23.8  299  76
2026 06 19 12  20 16 20.596   +32 18 27.97  .08350 1.0532 114.3 23.8  299  76
2026 06 19 13  20 16 29.929   +32 18 44.22  .08373 1.0533 114.3 23.8  299  76
2026 06 19 14  20 16 39.207   +32 19 00.23  .08396 1.0534 114.3 23.8  299  76
2026 06 19 15  20 16 48.429   +32 19 16.02  .08419 1.0535 114.3 23.8  299  76
2026 06 19 16  20 16 57.597   +32 19 31.58  .08442 1.0537 114.3 23.8  299  76
2026 06 19 17  20 17 06.710   +32 19 46.93  .08466 1.0538 114.3 23.8  299  76
2026 06 19 18  20 17 15.768   +32 20 02.05  .08489 1.0539 114.3 23.8  299  76